Year,Month,Day,Hour,Minute,Value (Times are PST for temperature in C)
2013,10,23,00,00,5.40
2013,10,23,00,01,5.40
2013,10,23,00,02,5.40
2013,10,23,00,03,5.30
2013,10,23,00,04,5.30
2013,10,23,00,05,5.30
2013,10,23,00,06,5.30
2013,10,23,00,07,5.30
2013,10,23,00,08,5.30
2013,10,23,00,09,5.30
2013,10,23,00,10,5.30
2013,10,23,00,11,5.30
2013,10,23,00,12,5.20
2013,10,23,00,13,5.20
2013,10,23,00,14,5.20
2013,10,23,00,15,5.20
2013,10,23,00,16,5.20
2013,10,23,00,17,5.20
2013,10,23,00,18,5.20
2013,10,23,00,19,5.20
2013,10,23,00,20,5.20
2013,10,23,00,21,5.20
2013,10,23,00,22,5.10
2013,10,23,00,23,5.10
2013,10,23,00,24,5.10
2013,10,23,00,25,5.10
2013,10,23,00,26,5.10
2013,10,23,00,27,5.10
2013,10,23,00,28,5.10
2013,10,23,00,29,5.10
2013,10,23,00,30,5.10
2013,10,23,00,31,5.10
2013,10,23,00,32,5.00
2013,10,23,00,33,5.00
2013,10,23,00,34,5.00
2013,10,23,00,35,5.00
2013,10,23,00,36,5.00
2013,10,23,00,37,5.00
2013,10,23,00,38,5.00
2013,10,23,00,39,5.00
2013,10,23,00,40,5.00
2013,10,23,00,41,5.00
2013,10,23,00,42,5.00
2013,10,23,00,43,5.00
2013,10,23,00,44,4.90
2013,10,23,00,45,4.90
2013,10,23,00,46,4.90
2013,10,23,00,47,4.90
2013,10,23,00,48,4.90
2013,10,23,00,49,4.90
2013,10,23,00,50,4.90
2013,10,23,00,51,4.90
2013,10,23,00,52,4.90
2013,10,23,00,53,4.90
2013,10,23,00,54,4.90
2013,10,23,00,55,4.90
2013,10,23,00,56,4.90
2013,10,23,00,57,4.90
2013,10,23,00,58,4.90
2013,10,23,00,59,4.90
2013,10,23,01,00,4.90
2013,10,23,01,01,4.90
2013,10,23,01,02,4.90
2013,10,23,01,03,4.90
2013,10,23,01,04,4.90
2013,10,23,01,05,4.90
2013,10,23,01,06,4.90
2013,10,23,01,07,4.90
2013,10,23,01,08,4.90
2013,10,23,01,09,4.90
2013,10,23,01,10,4.90
2013,10,23,01,11,4.90
2013,10,23,01,12,4.90
2013,10,23,01,13,4.90
2013,10,23,01,14,4.90
2013,10,23,01,15,4.80
2013,10,23,01,16,4.80
2013,10,23,01,17,4.80
2013,10,23,01,18,4.80
2013,10,23,01,19,4.80
2013,10,23,01,20,4.80
2013,10,23,01,21,4.80
2013,10,23,01,22,4.80
2013,10,23,01,23,4.70
2013,10,23,01,24,4.70
2013,10,23,01,25,4.70
2013,10,23,01,26,4.70
2013,10,23,01,27,4.70
2013,10,23,01,28,4.70
2013,10,23,01,29,4.70
2013,10,23,01,30,4.70
2013,10,23,01,31,4.70
2013,10,23,01,32,4.70
2013,10,23,01,33,4.60
2013,10,23,01,34,4.60
2013,10,23,01,35,4.60
2013,10,23,01,36,4.60
2013,10,23,01,37,4.60
2013,10,23,01,38,4.60
2013,10,23,01,39,4.60
2013,10,23,01,40,4.60
2013,10,23,01,41,4.60
2013,10,23,01,42,4.60
2013,10,23,01,43,4.60
2013,10,23,01,44,4.60
2013,10,23,01,45,4.60
2013,10,23,01,46,4.60
2013,10,23,01,47,4.60
2013,10,23,01,48,4.60
2013,10,23,01,49,4.60
2013,10,23,01,50,4.60
2013,10,23,01,51,4.60
2013,10,23,01,52,4.60
2013,10,23,01,53,4.60
2013,10,23,01,54,4.60
2013,10,23,01,55,4.60
2013,10,23,01,56,4.60
2013,10,23,01,57,4.60
2013,10,23,01,58,4.60
2013,10,23,01,59,4.60
2013,10,23,02,00,4.50
2013,10,23,02,01,4.50
2013,10,23,02,02,4.50
2013,10,23,02,03,4.50
2013,10,23,02,04,4.50
2013,10,23,02,05,4.50
2013,10,23,02,06,4.50
2013,10,23,02,07,4.50
2013,10,23,02,08,4.50
2013,10,23,02,09,4.50
2013,10,23,02,10,4.50
2013,10,23,02,11,4.50
2013,10,23,02,12,4.40
2013,10,23,02,13,4.40
2013,10,23,02,14,4.40
2013,10,23,02,15,4.40
2013,10,23,02,16,4.40
2013,10,23,02,17,4.40
2013,10,23,02,18,4.40
2013,10,23,02,19,4.40
2013,10,23,02,20,4.40
2013,10,23,02,21,4.40
2013,10,23,02,22,4.30
2013,10,23,02,23,4.30
2013,10,23,02,24,4.30
2013,10,23,02,25,4.30
2013,10,23,02,26,4.30
2013,10,23,02,27,4.30
2013,10,23,02,28,4.30
2013,10,23,02,29,4.30
2013,10,23,02,30,4.30
2013,10,23,02,31,4.30
2013,10,23,02,32,4.30
2013,10,23,02,33,4.30
2013,10,23,02,34,4.30
2013,10,23,02,35,4.30
2013,10,23,02,36,4.30
2013,10,23,02,37,4.30
2013,10,23,02,38,4.20
2013,10,23,02,39,4.20
2013,10,23,02,40,4.20
2013,10,23,02,41,4.20
2013,10,23,02,42,4.20
2013,10,23,02,43,4.20
2013,10,23,02,44,4.20
2013,10,23,02,45,4.20
2013,10,23,02,46,4.20
2013,10,23,02,47,4.20
2013,10,23,02,48,4.20
2013,10,23,02,49,4.20
2013,10,23,02,50,4.20
2013,10,23,02,51,4.20
2013,10,23,02,52,4.20
2013,10,23,02,53,4.20
2013,10,23,02,54,4.20
2013,10,23,02,55,4.20
2013,10,23,02,56,4.20
2013,10,23,02,57,4.20
2013,10,23,02,58,4.20
2013,10,23,02,59,4.20
2013,10,23,03,00,4.20
2013,10,23,03,01,4.20
2013,10,23,03,02,4.10
2013,10,23,03,03,4.10
2013,10,23,03,04,4.10
2013,10,23,03,05,4.10
2013,10,23,03,06,4.10
2013,10,23,03,07,4.10
2013,10,23,03,08,4.10
2013,10,23,03,09,4.10
2013,10,23,03,10,4.10
2013,10,23,03,11,4.10
2013,10,23,03,12,4.00
2013,10,23,03,13,4.00
2013,10,23,03,14,4.00
2013,10,23,03,15,4.00
2013,10,23,03,16,4.00
2013,10,23,03,17,4.00
2013,10,23,03,18,4.00
2013,10,23,03,19,4.00
2013,10,23,03,20,4.00
2013,10,23,03,21,4.00
2013,10,23,03,22,4.00
2013,10,23,03,23,4.00
2013,10,23,03,24,4.00
2013,10,23,03,25,4.00
2013,10,23,03,26,3.90
2013,10,23,03,27,3.90
2013,10,23,03,28,3.90
2013,10,23,03,29,3.90
2013,10,23,03,30,3.90
2013,10,23,03,31,3.90
2013,10,23,03,32,3.90
2013,10,23,03,33,3.90
2013,10,23,03,34,3.90
2013,10,23,03,35,3.90
2013,10,23,03,36,3.90
2013,10,23,03,37,3.90
2013,10,23,03,38,3.90
2013,10,23,03,39,3.90
2013,10,23,03,40,3.90
2013,10,23,03,41,3.90
2013,10,23,03,42,3.90
2013,10,23,03,43,3.90
2013,10,23,03,44,3.90
2013,10,23,03,45,3.90
2013,10,23,03,46,3.90
2013,10,23,03,47,3.90
2013,10,23,03,48,3.90
2013,10,23,03,49,3.90
2013,10,23,03,50,3.90
2013,10,23,03,51,3.90
2013,10,23,03,52,3.90
2013,10,23,03,53,3.90
2013,10,23,03,54,3.90
2013,10,23,03,55,3.90
2013,10,23,03,56,3.90
2013,10,23,03,57,3.90
2013,10,23,03,58,3.90
2013,10,23,03,59,3.90
2013,10,23,04,00,3.90
2013,10,23,04,01,3.90
2013,10,23,04,02,3.80
2013,10,23,04,03,3.80
2013,10,23,04,04,3.80
2013,10,23,04,05,3.80
2013,10,23,04,06,3.80
2013,10,23,04,07,3.80
2013,10,23,04,08,3.80
2013,10,23,04,09,3.80
2013,10,23,04,10,3.80
2013,10,23,04,11,3.80
2013,10,23,04,12,3.80
2013,10,23,04,13,3.80
2013,10,23,04,14,3.80
2013,10,23,04,15,3.70
2013,10,23,04,16,3.70
2013,10,23,04,17,3.70
2013,10,23,04,18,3.70
2013,10,23,04,19,3.70
2013,10,23,04,20,3.70
2013,10,23,04,21,3.70
2013,10,23,04,22,3.70
2013,10,23,04,23,3.70
2013,10,23,04,24,3.60
2013,10,23,04,25,3.60
2013,10,23,04,26,3.60
2013,10,23,04,27,3.60
2013,10,23,04,28,3.60
2013,10,23,04,29,3.60
2013,10,23,04,30,3.60
2013,10,23,04,31,3.60
2013,10,23,04,32,3.60
2013,10,23,04,33,3.60
2013,10,23,04,34,3.60
2013,10,23,04,35,3.60
2013,10,23,04,36,3.60
2013,10,23,04,37,3.60
2013,10,23,04,38,3.60
2013,10,23,04,39,3.60
2013,10,23,04,40,3.60
2013,10,23,04,41,3.60
2013,10,23,04,42,3.60
2013,10,23,04,43,3.60
2013,10,23,04,44,3.60
2013,10,23,04,45,3.60
2013,10,23,04,46,3.60
2013,10,23,04,47,3.60
2013,10,23,04,48,3.60
2013,10,23,04,49,3.60
2013,10,23,04,50,3.60
2013,10,23,04,51,3.60
2013,10,23,04,52,3.60
2013,10,23,04,53,3.60
2013,10,23,04,54,3.60
2013,10,23,04,55,3.60
2013,10,23,04,56,3.60
2013,10,23,04,57,3.60
2013,10,23,04,58,3.50
2013,10,23,04,59,3.50
2013,10,23,05,00,3.50
2013,10,23,05,01,3.50
2013,10,23,05,02,3.50
2013,10,23,05,03,3.50
2013,10,23,05,04,3.50
2013,10,23,05,05,3.40
2013,10,23,05,06,3.40
2013,10,23,05,07,3.40
2013,10,23,05,08,3.40
2013,10,23,05,09,3.40
2013,10,23,05,10,3.40
2013,10,23,05,11,3.40
2013,10,23,05,12,3.40
2013,10,23,05,13,3.40
2013,10,23,05,14,3.40
2013,10,23,05,15,3.40
2013,10,23,05,16,3.40
2013,10,23,05,17,3.30
2013,10,23,05,18,3.30
2013,10,23,05,19,3.30
2013,10,23,05,20,3.30
2013,10,23,05,21,3.30
2013,10,23,05,22,3.30
2013,10,23,05,23,3.30
2013,10,23,05,24,3.30
2013,10,23,05,25,3.30
2013,10,23,05,26,3.30
2013,10,23,05,27,3.30
2013,10,23,05,28,3.20
2013,10,23,05,29,3.20
2013,10,23,05,30,3.20
2013,10,23,05,31,3.20
2013,10,23,05,32,3.20
2013,10,23,05,33,3.20
2013,10,23,05,34,3.20
2013,10,23,05,35,3.20
2013,10,23,05,36,3.20
2013,10,23,05,37,3.20
2013,10,23,05,38,3.20
2013,10,23,05,39,3.20
2013,10,23,05,40,3.20
2013,10,23,05,41,3.20
2013,10,23,05,42,3.20
2013,10,23,05,43,3.20
2013,10,23,05,44,3.20
2013,10,23,05,45,3.20
2013,10,23,05,46,3.20
2013,10,23,05,47,3.20
2013,10,23,05,48,3.20
2013,10,23,05,49,3.20
2013,10,23,05,50,3.20
2013,10,23,05,51,3.20
2013,10,23,05,52,3.20
2013,10,23,05,53,3.20
2013,10,23,05,54,3.20
2013,10,23,05,55,3.20
2013,10,23,05,56,3.20
2013,10,23,05,57,3.20
2013,10,23,05,58,3.20
2013,10,23,05,59,3.20
2013,10,23,06,00,3.20
2013,10,23,06,01,3.20
2013,10,23,06,02,3.10
2013,10,23,06,03,3.10
2013,10,23,06,04,3.10
2013,10,23,06,05,3.10
2013,10,23,06,06,3.10
2013,10,23,06,07,3.10
2013,10,23,06,08,3.10
2013,10,23,06,09,3.10
2013,10,23,06,10,3.10
2013,10,23,06,11,3.10
2013,10,23,06,12,3.10
2013,10,23,06,13,3.10
2013,10,23,06,14,3.10
2013,10,23,06,15,3.10
2013,10,23,06,16,3.10
2013,10,23,06,17,3.10
2013,10,23,06,18,3.10
2013,10,23,06,19,3.10
2013,10,23,06,20,3.10
2013,10,23,06,21,3.10
2013,10,23,06,22,3.10
2013,10,23,06,23,3.10
2013,10,23,06,24,3.10
2013,10,23,06,25,3.10
2013,10,23,06,26,3.10
2013,10,23,06,27,3.10
2013,10,23,06,28,3.10
2013,10,23,06,29,3.10
2013,10,23,06,30,3.10
2013,10,23,06,31,3.10
2013,10,23,06,32,3.00
2013,10,23,06,33,3.00
2013,10,23,06,34,3.00
2013,10,23,06,35,3.00
2013,10,23,06,36,3.00
2013,10,23,06,37,3.00
2013,10,23,06,38,3.00
2013,10,23,06,39,3.00
2013,10,23,06,40,3.00
2013,10,23,06,41,3.00
2013,10,23,06,42,3.00
2013,10,23,06,43,3.00
2013,10,23,06,44,3.00
2013,10,23,06,45,3.00
2013,10,23,06,46,3.00
2013,10,23,06,47,3.00
2013,10,23,06,48,3.00
2013,10,23,06,49,3.00
2013,10,23,06,50,3.00
2013,10,23,06,51,3.00
2013,10,23,06,52,3.00
2013,10,23,06,53,3.00
2013,10,23,06,54,2.90
2013,10,23,06,55,2.90
2013,10,23,06,56,2.90
2013,10,23,06,57,2.90
2013,10,23,06,58,2.90
2013,10,23,06,59,2.90
2013,10,23,07,00,2.90
2013,10,23,07,01,2.90
2013,10,23,07,02,2.90
2013,10,23,07,03,2.90
2013,10,23,07,04,2.90
2013,10,23,07,05,2.90
2013,10,23,07,06,2.90
2013,10,23,07,07,2.90
2013,10,23,07,08,2.90
2013,10,23,07,09,2.90
2013,10,23,07,10,2.90
2013,10,23,07,11,2.90
2013,10,23,07,12,2.90
2013,10,23,07,13,2.90
2013,10,23,07,14,2.90
2013,10,23,07,15,2.90
2013,10,23,07,16,2.90
2013,10,23,07,17,2.90
2013,10,23,07,18,2.90
2013,10,23,07,19,2.90
2013,10,23,07,20,2.90
2013,10,23,07,21,2.90
2013,10,23,07,22,2.90
2013,10,23,07,23,2.90
2013,10,23,07,24,2.90
2013,10,23,07,25,2.90
2013,10,23,07,26,2.90
2013,10,23,07,27,2.90
2013,10,23,07,28,2.90
2013,10,23,07,29,2.90
2013,10,23,07,30,2.90
2013,10,23,07,31,2.90
2013,10,23,07,32,2.90
2013,10,23,07,33,2.90
2013,10,23,07,34,2.90
2013,10,23,07,35,2.90
2013,10,23,07,36,2.90
2013,10,23,07,37,2.90
2013,10,23,07,38,2.90
2013,10,23,07,39,2.90
2013,10,23,07,40,2.90
2013,10,23,07,41,2.90
2013,10,23,07,42,2.80
2013,10,23,07,43,2.80
2013,10,23,07,44,2.80
2013,10,23,07,45,2.80
2013,10,23,07,46,2.80
2013,10,23,07,47,2.80
2013,10,23,07,48,2.80
2013,10,23,07,49,2.80
2013,10,23,07,50,2.80
2013,10,23,07,51,2.80
2013,10,23,07,52,2.80
2013,10,23,07,53,2.80
2013,10,23,07,54,2.80
2013,10,23,07,55,2.80
2013,10,23,07,56,2.80
2013,10,23,07,57,2.80
2013,10,23,07,58,2.80
2013,10,23,07,59,2.80
2013,10,23,08,00,2.80
2013,10,23,08,01,2.80
2013,10,23,08,02,2.80
2013,10,23,08,03,2.80
2013,10,23,08,04,2.80
2013,10,23,08,05,2.80
2013,10,23,08,06,2.80
2013,10,23,08,07,2.80
2013,10,23,08,08,2.80
2013,10,23,08,09,2.80
2013,10,23,08,10,2.80
2013,10,23,08,11,2.80
2013,10,23,08,12,2.80
2013,10,23,08,13,2.80
2013,10,23,08,14,2.80
2013,10,23,08,15,2.80
2013,10,23,08,16,2.80
2013,10,23,08,17,2.80
2013,10,23,08,18,2.80
2013,10,23,08,19,2.80
2013,10,23,08,20,2.80
2013,10,23,08,21,2.80
2013,10,23,08,22,2.80
2013,10,23,08,23,2.80
2013,10,23,08,24,2.80
2013,10,23,08,25,2.80
2013,10,23,08,26,2.80
2013,10,23,08,27,2.80
2013,10,23,08,28,2.80
2013,10,23,08,29,2.80
2013,10,23,08,30,2.80
2013,10,23,08,31,2.80
2013,10,23,08,32,2.80
2013,10,23,08,33,2.80
2013,10,23,08,34,2.80
2013,10,23,08,35,2.80
2013,10,23,08,36,2.80
2013,10,23,08,37,2.80
2013,10,23,08,38,2.80
2013,10,23,08,39,2.80
2013,10,23,08,40,2.80
2013,10,23,08,41,2.80
2013,10,23,08,42,2.80
2013,10,23,08,43,2.80
2013,10,23,08,44,2.80
2013,10,23,08,45,2.80
2013,10,23,08,46,2.80
2013,10,23,08,47,2.80
2013,10,23,08,48,2.80
2013,10,23,08,49,2.80
2013,10,23,08,50,2.80
2013,10,23,08,51,2.80
2013,10,23,08,52,2.80
2013,10,23,08,53,2.80
2013,10,23,08,54,2.80
2013,10,23,08,55,2.80
2013,10,23,08,56,2.90
2013,10,23,08,57,2.90
2013,10,23,08,58,2.90
2013,10,23,08,59,2.90
2013,10,23,09,00,2.90
2013,10,23,09,01,2.90
2013,10,23,09,02,2.90
2013,10,23,09,03,2.90
2013,10,23,09,04,2.90
2013,10,23,09,05,2.90
2013,10,23,09,06,2.90
2013,10,23,09,07,2.90
2013,10,23,09,08,2.90
2013,10,23,09,09,2.90
2013,10,23,09,10,2.90
2013,10,23,09,11,2.90
2013,10,23,09,12,2.90
2013,10,23,09,13,2.90
2013,10,23,09,14,2.90
2013,10,23,09,15,2.90
2013,10,23,09,16,2.90
2013,10,23,09,17,2.90
2013,10,23,09,18,3.00
2013,10,23,09,19,3.00
2013,10,23,09,20,3.00
2013,10,23,09,21,3.00
2013,10,23,09,22,3.10
2013,10,23,09,23,3.10
2013,10,23,09,24,3.20
2013,10,23,09,25,3.20
2013,10,23,09,26,3.20
2013,10,23,09,27,3.20
2013,10,23,09,28,3.20
2013,10,23,09,29,3.20
2013,10,23,09,30,3.30
2013,10,23,09,31,3.30
2013,10,23,09,32,3.30
2013,10,23,09,33,3.30
2013,10,23,09,34,3.40
2013,10,23,09,35,3.40
2013,10,23,09,36,3.40
2013,10,23,09,37,3.40
2013,10,23,09,38,3.50
2013,10,23,09,39,3.50
2013,10,23,09,40,3.50
2013,10,23,09,41,3.60
2013,10,23,09,42,3.60
2013,10,23,09,43,3.70
2013,10,23,09,44,3.70
2013,10,23,09,45,3.70
2013,10,23,09,46,3.80
2013,10,23,09,47,3.80
2013,10,23,09,48,3.80
2013,10,23,09,49,3.90
2013,10,23,09,50,3.90
2013,10,23,09,51,3.90
2013,10,23,09,52,4.00
2013,10,23,09,53,4.00
2013,10,23,09,54,4.00
2013,10,23,09,55,4.10
2013,10,23,09,56,4.10
2013,10,23,09,57,4.10
2013,10,23,09,58,4.10
2013,10,23,09,59,4.20
2013,10,23,10,00,4.20
2013,10,23,10,01,4.20
2013,10,23,10,02,4.30
2013,10,23,10,03,4.30
2013,10,23,10,04,4.30
2013,10,23,10,05,4.40
2013,10,23,10,06,4.50
2013,10,23,10,07,4.50
2013,10,23,10,08,4.60
2013,10,23,10,09,4.70
2013,10,23,10,10,4.70
2013,10,23,10,11,4.80
2013,10,23,10,12,4.80
2013,10,23,10,13,4.90
2013,10,23,10,14,5.00
2013,10,23,10,15,5.00
2013,10,23,10,16,5.10
2013,10,23,10,17,5.10
2013,10,23,10,18,5.20
2013,10,23,10,19,5.20
2013,10,23,10,20,5.20
2013,10,23,10,21,5.30
2013,10,23,10,22,5.30
2013,10,23,10,23,5.40
2013,10,23,10,24,5.50
2013,10,23,10,25,5.60
2013,10,23,10,26,5.70
2013,10,23,10,27,5.70
2013,10,23,10,28,5.80
2013,10,23,10,29,5.80
2013,10,23,10,30,5.90
2013,10,23,10,31,6.00
2013,10,23,10,32,6.10
2013,10,23,10,33,6.20
2013,10,23,10,34,6.20
2013,10,23,10,35,6.30
2013,10,23,10,36,6.30
2013,10,23,10,37,6.40
2013,10,23,10,38,6.50
2013,10,23,10,39,6.50
2013,10,23,10,40,6.60
2013,10,23,10,41,6.60
2013,10,23,10,42,6.60
2013,10,23,10,43,6.70
2013,10,23,10,44,6.80
2013,10,23,10,45,6.80
2013,10,23,10,46,6.80
2013,10,23,10,47,6.90
2013,10,23,10,48,6.90
2013,10,23,10,49,6.90
2013,10,23,10,50,7.00
2013,10,23,10,51,7.10
2013,10,23,10,52,7.10
2013,10,23,10,53,7.20
2013,10,23,10,54,7.20
2013,10,23,10,55,7.20
2013,10,23,10,56,7.30
2013,10,23,10,57,7.30
2013,10,23,10,58,7.40
2013,10,23,10,59,7.50
2013,10,23,11,00,7.50
2013,10,23,11,01,7.60
2013,10,23,11,02,7.60
2013,10,23,11,03,7.60
2013,10,23,11,04,7.60
2013,10,23,11,05,7.60
2013,10,23,11,06,7.60
2013,10,23,11,07,7.60
2013,10,23,11,08,7.60
2013,10,23,11,09,7.60
2013,10,23,11,10,7.60
2013,10,23,11,11,7.70
2013,10,23,11,12,7.70
2013,10,23,11,13,7.70
2013,10,23,11,14,7.80
2013,10,23,11,15,7.90
2013,10,23,11,16,8.00
2013,10,23,11,17,8.10
2013,10,23,11,18,8.20
2013,10,23,11,19,8.30
2013,10,23,11,20,8.30
2013,10,23,11,21,8.40
2013,10,23,11,22,8.50
2013,10,23,11,23,8.50
2013,10,23,11,24,8.60
2013,10,23,11,25,8.60
2013,10,23,11,26,8.60
2013,10,23,11,27,8.70
2013,10,23,11,28,8.70
2013,10,23,11,29,8.70
2013,10,23,11,30,8.70
2013,10,23,11,31,8.80
2013,10,23,11,32,8.80
2013,10,23,11,33,8.90
2013,10,23,11,34,8.90
2013,10,23,11,35,9.00
2013,10,23,11,36,9.10
2013,10,23,11,37,9.20
2013,10,23,11,38,9.20
2013,10,23,11,39,9.30
2013,10,23,11,40,9.40
2013,10,23,11,41,9.50
2013,10,23,11,42,9.50
2013,10,23,11,43,9.60
2013,10,23,11,44,9.60
2013,10,23,11,45,9.70
2013,10,23,11,46,9.80
2013,10,23,11,47,9.80
2013,10,23,11,48,9.80
2013,10,23,11,49,9.90
2013,10,23,11,50,9.90
2013,10,23,11,51,10.00
2013,10,23,11,52,10.10
2013,10,23,11,53,10.20
2013,10,23,11,54,10.20
2013,10,23,11,55,10.40
2013,10,23,11,56,10.40
2013,10,23,11,57,10.50
2013,10,23,11,58,10.60
2013,10,23,11,59,10.70
2013,10,23,12,00,10.80
2013,10,23,12,01,10.80
2013,10,23,12,02,10.90
2013,10,23,12,03,10.90
2013,10,23,12,04,11.00
2013,10,23,12,05,11.10
2013,10,23,12,06,11.10
2013,10,23,12,07,11.20
2013,10,23,12,08,11.20
2013,10,23,12,09,11.30
2013,10,23,12,10,11.30
2013,10,23,12,11,11.40
2013,10,23,12,12,11.50
2013,10,23,12,13,11.50
2013,10,23,12,14,11.50
2013,10,23,12,15,11.60
2013,10,23,12,16,11.60
2013,10,23,12,17,11.70
2013,10,23,12,18,11.80
2013,10,23,12,19,11.80
2013,10,23,12,20,11.90
2013,10,23,12,21,12.00
2013,10,23,12,22,12.10
2013,10,23,12,23,12.20
2013,10,23,12,24,12.20
2013,10,23,12,25,12.30
2013,10,23,12,26,12.30
2013,10,23,12,27,12.30
2013,10,23,12,28,12.30
2013,10,23,12,29,12.30
2013,10,23,12,30,12.40
2013,10,23,12,31,12.40
2013,10,23,12,32,12.40
2013,10,23,12,33,12.40
2013,10,23,12,34,12.40
2013,10,23,12,35,12.40
2013,10,23,12,36,12.40
2013,10,23,12,37,12.50
2013,10,23,12,38,12.50
2013,10,23,12,39,12.50
2013,10,23,12,40,12.60
2013,10,23,12,41,12.60
2013,10,23,12,42,12.60
2013,10,23,12,43,12.70
2013,10,23,12,44,12.70
2013,10,23,12,45,12.80
2013,10,23,12,46,12.80
2013,10,23,12,47,12.90
2013,10,23,12,48,13.00
2013,10,23,12,49,13.10
2013,10,23,12,50,13.20
2013,10,23,12,51,13.30
2013,10,23,12,52,13.30
2013,10,23,12,53,13.50
2013,10,23,12,54,13.60
2013,10,23,12,55,13.70
2013,10,23,12,56,13.80
2013,10,23,12,57,13.90
2013,10,23,12,58,14.00
2013,10,23,12,59,14.10
2013,10,23,13,00,14.10
2013,10,23,13,01,14.10
2013,10,23,13,02,14.10
2013,10,23,13,03,14.10
2013,10,23,13,04,14.20
2013,10,23,13,05,14.10
2013,10,23,13,06,14.10
2013,10,23,13,07,14.10
2013,10,23,13,08,14.20
2013,10,23,13,09,14.20
2013,10,23,13,10,14.20
2013,10,23,13,11,14.20
2013,10,23,13,12,14.30
2013,10,23,13,13,14.30
2013,10,23,13,14,14.30
2013,10,23,13,15,14.40
2013,10,23,13,16,14.40
2013,10,23,13,17,14.40
2013,10,23,13,18,14.40
2013,10,23,13,19,14.50
2013,10,23,13,20,14.50
2013,10,23,13,21,14.50
2013,10,23,13,22,14.60
2013,10,23,13,23,14.60
2013,10,23,13,24,14.60
2013,10,23,13,25,14.60
2013,10,23,13,26,14.70
2013,10,23,13,27,14.70
2013,10,23,13,28,14.80
2013,10,23,13,29,14.80
2013,10,23,13,30,14.90
2013,10,23,13,31,14.90
2013,10,23,13,32,15.00
2013,10,23,13,33,15.10
2013,10,23,13,34,15.10
2013,10,23,13,35,15.20
2013,10,23,13,36,15.30
2013,10,23,13,37,15.40
2013,10,23,13,38,15.50
2013,10,23,13,39,15.50
2013,10,23,13,40,15.60
2013,10,23,13,41,15.60
2013,10,23,13,42,15.70
2013,10,23,13,43,15.80
2013,10,23,13,44,15.90
2013,10,23,13,45,16.00
2013,10,23,13,46,16.20
2013,10,23,13,47,16.20
2013,10,23,13,48,16.30
2013,10,23,13,49,16.40
2013,10,23,13,50,16.50
2013,10,23,13,51,16.60
2013,10,23,13,52,16.60
2013,10,23,13,53,16.60
2013,10,23,13,54,16.60
2013,10,23,13,55,16.60
2013,10,23,13,56,16.60
2013,10,23,13,57,16.50
2013,10,23,13,58,16.60
2013,10,23,13,59,16.50
2013,10,23,14,00,16.50
2013,10,23,14,01,16.50
2013,10,23,14,02,16.60
2013,10,23,14,03,16.60
2013,10,23,14,04,16.60
2013,10,23,14,05,16.60
2013,10,23,14,06,16.70
2013,10,23,14,07,16.70
2013,10,23,14,08,16.70
2013,10,23,14,09,16.70
2013,10,23,14,10,16.80
2013,10,23,14,11,16.90
2013,10,23,14,12,17.00
2013,10,23,14,13,17.00
2013,10,23,14,14,17.10
2013,10,23,14,15,17.20
2013,10,23,14,16,17.30
2013,10,23,14,17,17.30
2013,10,23,14,18,17.40
2013,10,23,14,19,17.40
2013,10,23,14,20,17.50
2013,10,23,14,21,17.50
2013,10,23,14,22,17.60
2013,10,23,14,23,17.70
2013,10,23,14,24,17.70
2013,10,23,14,25,17.70
2013,10,23,14,26,17.80
2013,10,23,14,27,17.80
2013,10,23,14,28,17.90
2013,10,23,14,29,18.00
2013,10,23,14,30,18.10
2013,10,23,14,31,18.20
2013,10,23,14,32,18.30
2013,10,23,14,33,18.30
2013,10,23,14,34,18.40
2013,10,23,14,35,18.50
2013,10,23,14,36,18.60
2013,10,23,14,37,18.70
2013,10,23,14,38,18.80
2013,10,23,14,39,18.80
2013,10,23,14,40,18.90
2013,10,23,14,41,18.90
2013,10,23,14,42,18.90
2013,10,23,14,43,18.90
2013,10,23,14,44,18.90
2013,10,23,14,45,18.90
2013,10,23,14,46,18.90
2013,10,23,14,47,18.90
2013,10,23,14,48,18.90
2013,10,23,14,49,18.80
2013,10,23,14,50,18.80
2013,10,23,14,51,18.80
2013,10,23,14,52,18.80
2013,10,23,14,53,18.80
2013,10,23,14,54,18.80
2013,10,23,14,55,18.90
2013,10,23,14,56,18.90
2013,10,23,14,57,18.90
2013,10,23,14,58,18.90
2013,10,23,14,59,19.00
2013,10,23,15,00,19.00
2013,10,23,15,01,19.10
2013,10,23,15,02,19.20
2013,10,23,15,03,19.30
2013,10,23,15,04,19.30
2013,10,23,15,05,19.40
2013,10,23,15,06,19.40
2013,10,23,15,07,19.40
2013,10,23,15,08,19.40
2013,10,23,15,09,19.40
2013,10,23,15,10,19.40
2013,10,23,15,11,19.40
2013,10,23,15,12,19.50
2013,10,23,15,13,19.60
2013,10,23,15,14,19.60
2013,10,23,15,15,19.70
2013,10,23,15,16,19.70
2013,10,23,15,17,19.80
2013,10,23,15,18,19.80
2013,10,23,15,19,19.90
2013,10,23,15,20,19.90
2013,10,23,15,21,19.90
2013,10,23,15,22,19.90
2013,10,23,15,23,19.90
2013,10,23,15,24,19.90
2013,10,23,15,25,19.90
2013,10,23,15,26,19.90
2013,10,23,15,27,19.90
2013,10,23,15,28,20.00
2013,10,23,15,29,20.10
2013,10,23,15,30,20.10
2013,10,23,15,31,20.20
2013,10,23,15,32,20.30
2013,10,23,15,33,20.30
2013,10,23,15,34,20.30
2013,10,23,15,35,20.30
2013,10,23,15,36,20.20
2013,10,23,15,37,20.10
2013,10,23,15,38,20.00
2013,10,23,15,39,19.90
2013,10,23,15,40,19.80
2013,10,23,15,41,19.70
2013,10,23,15,42,19.60
2013,10,23,15,43,19.50
2013,10,23,15,44,19.30
2013,10,23,15,45,19.20
2013,10,23,15,46,19.10
2013,10,23,15,47,19.00
2013,10,23,15,48,18.90
2013,10,23,15,49,18.80
2013,10,23,15,50,18.70
2013,10,23,15,51,18.60
2013,10,23,15,52,18.60
2013,10,23,15,53,18.60
2013,10,23,15,54,18.60
2013,10,23,15,55,18.60
2013,10,23,15,56,18.60
2013,10,23,15,57,18.60
2013,10,23,15,58,18.60
2013,10,23,15,59,18.60
2013,10,23,16,00,18.60
2013,10,23,16,01,18.60
2013,10,23,16,02,18.60
2013,10,23,16,03,18.60
2013,10,23,16,04,18.70
2013,10,23,16,05,18.70
2013,10,23,16,06,18.80
2013,10,23,16,07,18.80
2013,10,23,16,08,18.80
2013,10,23,16,09,18.90
2013,10,23,16,10,18.90
2013,10,23,16,11,18.90
2013,10,23,16,12,18.80
2013,10,23,16,13,18.80
2013,10,23,16,14,18.80
2013,10,23,16,15,18.70
2013,10,23,16,16,18.60
2013,10,23,16,17,18.50
2013,10,23,16,18,18.50
2013,10,23,16,19,18.40
2013,10,23,16,20,18.30
2013,10,23,16,21,18.20
2013,10,23,16,22,18.10
2013,10,23,16,23,18.00
2013,10,23,16,24,17.90
2013,10,23,16,25,17.80
2013,10,23,16,26,17.70
2013,10,23,16,27,17.60
2013,10,23,16,28,17.60
2013,10,23,16,29,17.50
2013,10,23,16,30,17.40
2013,10,23,16,31,17.40
2013,10,23,16,32,17.30
2013,10,23,16,33,17.30
2013,10,23,16,34,17.20
2013,10,23,16,35,17.20
2013,10,23,16,36,17.20
2013,10,23,16,37,17.10
2013,10,23,16,38,17.10
2013,10,23,16,39,17.00
2013,10,23,16,40,17.00
2013,10,23,16,41,16.90
2013,10,23,16,42,16.90
2013,10,23,16,43,16.80
2013,10,23,16,44,16.80
2013,10,23,16,45,16.70
2013,10,23,16,46,16.70
2013,10,23,16,47,16.60
2013,10,23,16,48,16.60
2013,10,23,16,49,16.50
2013,10,23,16,50,16.50
2013,10,23,16,51,16.40
2013,10,23,16,52,16.40
2013,10,23,16,53,16.30
2013,10,23,16,54,16.30
2013,10,23,16,55,16.30
2013,10,23,16,56,16.20
2013,10,23,16,57,16.10
2013,10,23,16,58,16.10
2013,10,23,16,59,16.00
2013,10,23,17,00,15.90
2013,10,23,17,01,15.70
2013,10,23,17,02,15.50
2013,10,23,17,03,15.20
2013,10,23,17,04,15.00
2013,10,23,17,05,14.80
2013,10,23,17,06,14.70
2013,10,23,17,07,14.50
2013,10,23,17,08,14.40
2013,10,23,17,09,14.30
2013,10,23,17,10,14.10
2013,10,23,17,11,14.00
2013,10,23,17,12,13.90
2013,10,23,17,13,13.80
2013,10,23,17,14,13.70
2013,10,23,17,15,13.70
2013,10,23,17,16,13.60
2013,10,23,17,17,13.50
2013,10,23,17,18,13.50
2013,10,23,17,19,13.40
2013,10,23,17,20,13.30
2013,10,23,17,21,13.30
2013,10,23,17,22,13.20
2013,10,23,17,23,13.10
2013,10,23,17,24,13.00
2013,10,23,17,25,12.90
2013,10,23,17,26,12.80
2013,10,23,17,27,12.70
2013,10,23,17,28,12.60
2013,10,23,17,29,12.50
2013,10,23,17,30,12.50
2013,10,23,17,31,12.40
2013,10,23,17,32,12.30
2013,10,23,17,33,12.30
2013,10,23,17,34,12.20
2013,10,23,17,35,12.10
2013,10,23,17,36,12.10
2013,10,23,17,37,12.00
2013,10,23,17,38,11.90
2013,10,23,17,39,11.90
2013,10,23,17,40,11.80
2013,10,23,17,41,11.80
2013,10,23,17,42,11.80
2013,10,23,17,43,11.70
2013,10,23,17,44,11.70
2013,10,23,17,45,11.60
2013,10,23,17,46,11.60
2013,10,23,17,47,11.60
2013,10,23,17,48,11.50
2013,10,23,17,49,11.50
2013,10,23,17,50,11.40